Location: Natural Bridges National Monument
(37.6093°N, 109.9767°W)
Time: 17:14:20
(UTC-07:00)

N. Korean satellite - Visible Passes

Search period start: 15 January 2021 00:00
Search period end: 25 January 2021 00:00
Orbit: 453 x 502 km, 97.2° (Epoch: 15 January)

Date Brightness Start Highest point End Pass type
(mag) Time Alt. Az. Time Alt. Az. Time Alt. Az.
15 Jan 7.8 05:24:48 10° NNE 05:28:08 40° E 05:31:25 10° S visible
15 Jan 8.5 07:00:40 10° WNW 07:01:01 10° WNW 07:01:22 10° WNW visible
16 Jan 9.3 04:59:00 10° NE 05:01:28 18° E 05:03:54 10° SE visible
16 Jan 7.7 06:31:59 10° NNW 06:34:43 21° WNW 06:37:24 10° WSW visible
17 Jan 6.6 06:04:54 10° N 06:08:18 48° WNW 06:11:37 10° SSW visible
17 Jan 10.3 18:13:23 10° WSW 18:14:27 11° W 18:15:31 10° WNW visible
18 Jan 6.8 05:38:17 10° NNE 05:41:47 66° E 05:45:11 10° S visible
19 Jan 8.6 05:12:08 10° NE 05:15:09 27° E 05:18:06 10° SSE visible
19 Jan 8.2 06:46:15 10° NW 06:48:12 14° WNW 06:50:08 10° WSW visible
20 Jan 9.8 04:47:00 10° ENE 04:48:25 12° E 04:49:50 10° ESE visible
20 Jan 7.2 06:18:44 10° N 06:21:49 30° WNW 06:24:53 10° SW visible
21 Jan 6.3 05:51:52 10° N 05:55:21 76° WNW 05:58:45 10° SSW visible
21 Jan 9.8 17:59:05 10° SW 18:01:24 16° W 18:03:44 10° NW visible
22 Jan 7.7 05:25:28 10° NNE 05:28:46 41° E 05:32:01 10° S visible
23 Jan 9.3 04:59:38 10° NE 05:02:05 18° E 05:04:30 10° SE visible
23 Jan 7.7 06:32:42 10° NNW 06:35:19 20° WNW 06:37:54 10° WSW visible
24 Jan 6.6 06:05:33 10° N 06:08:52 46° WNW 06:12:09 10° SSW visible
24 Jan 10.4 18:14:21 10° WSW 18:15:05 10° W 18:15:49 10° W visible
